الصفحة الرئيسية
METAR-TAF:

METAR-TAF

مطار :

مدينة همدان, إيران

دائرة عرض: 34-52-05N, خط طول: 048-33-08E, ارتفاع: 1757 متر

مراقبة الطقس الحالي

تاريخ ووقت الإصدار 1ساعة و 5 دقيقة قبل الساعة 18:55UTC
ريح 4 عقدة من الشمال الغربي
درجة الحرارة 8°درجة مئوية
الرطوبة 57%
ضغط 1011 hPa
الرؤية 10 كم أو أكثر
غيوم قليلة على ارتفاع 3500 قدم, مزنة ركامية.
غيوم متفرقة على ارتفاع 4000 قدم

METAR: OIHH 221855Z 32004KT 9999 FEW035CB SCT040 08/M00 Q1011

زمن: 23:30 (20:00 UTC)


TAF: مفقودة

أرصاد الطقس والتوقعات من أكثر من 4000 مطار (تقارير الطقس للمطار METAR والتنبؤ بالطقس بالمطارTAF).

المحطات المتاحة هي النقط الصفراء والحمراء على الخريطة.

حرك المؤشر فوق النقطة لمعرفة اسم المحطة.

ثم انقر لمعرفة أرصاد وتوقعات الطقس.

لتغيير الخارطة: اضغط على الأزرار الخضراء مع رمز الصليب الأسود للتكبير. على الزر الأخضر مع شرطة للتصغير، أو على الأسهم الخضراء للخرائط المجاورة.


METAR-TAF: